Regional Weather Roundup
Issued by NWS Jackson, KY

Home | Current Version | Previous Version | Text Only | Print | Product List | Glossary Off
Versions: 1 2 3 4 5 6 7 8 9 10 11 12 13 14 15 16 17 18 19 20 21 22 23 24 25 26 27

000
ASUS43 KJKL 220310
RWRJKL

EAST KENTUCKY HOURLY WEATHER ROUNDUP
NATIONAL WEATHER SERVICE JACKSON KY
1000 PM EST TUE FEB 21 2017

NOTE: "FAIR" INDICATES FEW OR NO CLOUDS BELOW 12,000 FEET WITH
NO SIGNIFICANT WEATHER AND/OR OBSTRUCTIONS TO VISIBILITY.

* THESE REPORTS ARE NOT UNDER NWS QUALITY CONTROL AND MAY NOT
  REPORT WEATHER SUCH AS PRECIPITATION AND FOG.

KYZ079-080-083-085-087-088-110-112-115-119-120-220400
...EASTERN KENTUCKY...

CITY           SKY/WX    TMP DP  RH WIND       PRES   REMARKS
JACKSON        CLOUDY    65  43  44 CALM      30.00S
LONDON         CLOUDY    60  50  69 CALM      30.00S
SOMERSET*      CLOUDY    54  54 100 CALM      30.02S
MONTICELLO*    LGT RAIN  58  53  84 NE8       30.01F
WILLIAMSBURG*  CLOUDY    55  55 100 CALM      30.01S
MIDDLESBORO*   CLOUDY    57  53  85 W3        30.01S
HARLAN APT*    CLOUDY    63  43  48 NE3       30.01F
PIKE CO APT*   CLOUDY    64  43  46 S3        30.01S
BIG SANDY APT* CLOUDY    64  41  42 S3        30.00S
MOREHEAD APT*  CLOUDY    61  50  67 CALM      30.01S
ASHLAND*       CLOUDY    61  52  72 W3        29.97F
$$

KYZ035-036-041-042-044-050-067-078-099-220400
...CENTRAL KENTUCKY...

CITY           SKY/WX    TMP DP  RH WIND       PRES   REMARKS
MT STERLING*   CLOUDY    63  50  63 CALM      30.00F
FLEMING/MASON* RAIN      56  55  96 NE5       30.01S
DANVILLE*      CLOUDY    55  54  94 SW3       30.00S
LEXINGTON      LGT RAIN  59  54  83 CALM      30.00R
FRANKFORT      LGT RAIN  59  54  83 CALM      29.98S
LOUISVILLE     CLOUDY    62  53  72 SE7       29.97S
LEBANON*         N/A     59  54  82 SE8       29.98S
GLASGOW*       RAIN      57  53  87 SE3       29.96F
BOWLING GREEN  LGT RAIN  58  56  93 E5        29.96S
$$

KYZ091>093-OHZ055-061-077-WVZ005-015-034-035-042-220400
...SOUTHERN OHIO/WEST VIRGINIA...

CITY           SKY/WX    TMP DP  RH WIND       PRES   REMARKS
COVINGTON      RAIN      56  56 100 SE9       29.98F FOG
COLUMBUS       LGT RAIN  58  51  78 S3        29.98R
DAYTON         LGT RAIN  56  53  90 S13       29.99R
WILMINGTON     LGT RAIN  53  52  96 S3        30.00S
HUNTINGTON     CLOUDY    64  42  44 CALM      29.97F
CHARLESTON     CLOUDY    64  42  44 SE6       29.99S
PINEVILLE*     MOCLDY    57  43  59 MISG      30.10R
BECKLEY        CLOUDY    53  39  59 VRB5      30.07S
BLUEFIELD      CLOUDY    51  38  60 S6        30.08S
LOGAN CO APT*  CLOUDY    63  36  36 CALM      30.01S
$$

VAZ002-007-008-TNZ017-027-036-066-071-220400
...SOUTHWEST VIRGINIA/EAST TENNESSEE...

CITY           SKY/WX    TMP DP  RH WIND       PRES   REMARKS
WISE*          CLOUDY    59  41  51 CALM      30.07S
JONESVILLE*      N/A    N/A N/A N/A E3          N/A
ABINGDON*      CLOUDY    59  44  57 SE3       30.07S
BRISTOL        CLOUDY    57  45  64 CALM      30.04F
MORRISTOWN*    CLOUDY    61  46  59 E3        29.99S
SEVIERVILLE*   CLOUDY    57  46  67 CALM      29.98S
KNOXVILLE      CLOUDY    62  48  60 CALM      29.98S
LAFOLLETTE*    CLOUDY    55  55 100 CALM      30.02S FOG
OAK RIDGE      LGT RAIN  60  51  72 CALM      30.00S
CROSSVILLE     CLOUDY    53  52  96 CALM      30.00F
NASHVILLE      CLOUDY    58  56  93 E3        29.96R
$$

...KEY TO REMARKS...
VSB - VISIBILITY IN MILES
WCI - WIND CHILL INDEX
HX  - HEAT INDEX

$$




USA.gov is the U.S. government's official web portal to all federal, state and local government web resources and services.